[[{"header":{"parameterUnit":"m.s-1","parameterCategory":1,"la1":30.2991,"la2":30.254,"lo1":-89.0895,"lo2":-89.0444,"dy":0.0017,"dx":0.0017,"nx":28,"ny":28,"refTime":"2025-02-02T09:00:00:Z","depth":0,"parameterNumber":2,"parameterNumberName":"U-component_of_WINDS"},"data":[0,0,0,0,0,0,0,0,0,0,0,0,0,0,0,0,0,0,0,0,0,0,0,0,0,0,0,0,0,0,0,0,0,0,0,0,0,0,0,0,0,0,0,0,0,0,0,0,0,0,0,0,0,0,0,0,0,0,-0.1567,-0.1566,0,-0.1498,-0.1497,-0.1497,-0.1465,-0.1466,-0.1466,-0.1466,-0.1395,-0.1393,-0.1391,0,0,0,0,0,0,0,0,0,0,0,0,0,-0.1672,-0.167,-0.1567,-0.1566,-0.1565,-0.1498,-0.1497,-0.1496,-0.1465,-0.1466,-0.1466,-0.1466,-0.1396,-0.1394,-0.1391,0,0,0,0,0,0,0,0,0,0,0,0,0,-0.1617,-0.167,-0.1567,-0.1542,-0.1539,-0.1499,-0.1497,-0.1496,-0.1465,-0.1466,-0.1466,-0.1466,-0.1397,-0.1394,-0.1391,-0.1371,0,0,-0.1382,-0.1381,0,0,0,0,0,0,0,0,-0.162,-0.1613,-0.1546,-0.1543,-0.154,-0.1491,-0.1509,-0.1454,-0.1465,-0.1493,-0.1466,-0.1466,-0.1427,-0.1421,-0.1408,-0.1368,-0.1365,-0.1382,-0.138,-0.1379,-0.1378,0,0,0,0,0,0,0,-0.1624,-0.1616,-0.154,-0.1545,-0.1542,-0.1534,-0.1526,-0.1498,-0.146,-0.1491,-0.1488,-0.1481,-0.1425,-0.1411,-0.1406,-0.1364,-0.1382,-0.1379,-0.1378,-0.1376,-0.1303,-0.1303,0,0,0,0,0,0,-0.1632,-0.1619,-0.1542,-0.1538,-0.1581,-0.1532,-0.1523,-0.1506,-0.1461,-0.1454,-0.1481,-0.148,-0.1416,-0.141,-0.1404,-0.1377,-0.1379,-0.1376,-0.1374,-0.1303,-0.1303,-0.1303,0,0,0,0,0,0,-0.1634,-0.1625,-0.1545,-0.1578,-0.1567,-0.153,-0.1511,-0.1505,-0.1491,-0.1453,-0.1446,-0.1473,-0.1416,-0.1408,-0.1379,-0.1374,-0.1375,-0.1372,-0.1303,-0.1303,-0.1303,-0.1324,0,0,0,0,0,0,-0.1638,-0.1626,-0.1618,-0.1578,-0.1565,-0.1521,-0.1511,-0.1503,-0.1486,-0.1484,-0.1444,-0.1438,-0.1415,-0.1384,-0.1376,-0.137,-0.137,-0.1304,-0.1303,-0.1303,-0.1324,-0.1325,-0.1325,0,0,0,0,0,-0.1641,-0.1627,-0.1618,-0.1609,-0.1554,-0.1521,-0.1514,-0.1489,-0.1486,-0.1477,-0.1453,-0.1439,-0.1376,-0.1381,-0.1373,-0.1366,-0.1304,-0.1303,-0.1303,-0.1323,-0.1324,-0.1325,0,0,0,0,0,0,-0.1668,-0.1621,-0.1611,-0.1583,-0.1556,-0.1516,-0.1504,-0.1491,-0.1464,-0.1463,-0.1433,-0.1424,-0.1398,-0.1379,-0.1385,-0.1344,-0.1339,-0.1337,-0.1357,-0.1358,-0.1359,-0.1364,-0.1367,0,0,0,0,0,-0.167,-0.1647,-0.1608,-0.1587,-0.1574,-0.1542,-0.1526,-0.1509,-0.148,-0.1469,-0.1442,-0.1415,-0.1389,-0.1372,-0.1347,-0.1321,-0.1312,-0.1312,-0.1313,-0.1314,-0.1312,-0.1297,-0.1297,-0.1301,-0.1301,-0.1301,0,0,-0.1675,-0.1647,-0.1634,-0.1591,-0.1569,-0.1545,-0.1532,-0.1508,-0.1491,-0.1465,-0.1436,-0.1416,-0.1384,-0.1356,-0.1343,-0.134,-0.1309,-0.1313,-0.1314,-0.1312,-0.1297,-0.1296,-0.1296,-0.1301,-0.1301,-0.1301,0,0,-0.1672,-0.1649,-0.1629,-0.1606,-0.1572,-0.1551,-0.1546,-0.1508,-0.1494,-0.1464,-0.1445,-0.1424,-0.138,-0.1357,-0.134,-0.133,-0.1316,-0.1322,-0.1326,-0.1312,-0.1312,-0.1311,-0.1307,-0.1306,-0.1321,-0.1321,-0.1321,0,-0.1683,-0.1647,-0.162,-0.1597,-0.1579,-0.1555,-0.1535,-0.1514,-0.1474,-0.1462,-0.1458,-0.1403,-0.1379,-0.1347,-0.1344,-0.1331,-0.1325,-0.1326,-0.1314,-0.1313,-0.1312,-0.1308,-0.1307,-0.1322,-0.1321,-0.1321,-0.1321,0,-0.1661,-0.1637,-0.1625,-0.1586,-0.1566,-0.1545,-0.1515,-0.1499,-0.1484,-0.1463,-0.1434,-0.1405,-0.1373,-0.1364,-0.1349,-0.1329,-0.1328,-0.132,-0.1314,-0.1313,-0.1309,-0.1307,-0.1323,-0.1323,-0.1322,-0.1322,0,0,-0.1672,-0.1619,-0.1615,-0.1598,-0.1559,-0.1539,-0.1517,-0.1485,-0.1472,-0.1445,-0.1425,-0.1389,-0.1381,-0.1362,-0.1344,-0.1332,-0.1325,-0.1325,-0.1324,-0.1326,-0.1302,-0.1308,-0.1307,-0.1316,-0.1316,-0.1315,-0.1305,0,-0.1664,-0.1622,-0.1598,-0.1566,-0.1543,-0.1521,-0.1501,-0.1475,-0.1455,-0.1433,-0.1411,-0.1386,-0.1378,-0.1366,-0.1353,-0.1329,-0.132,-0.1329,-0.1298,-0.1297,-0.1306,-0.1304,-0.1311,-0.1302,-0.1303,-0.1302,-0.1302,0,-0.1648,-0.1621,-0.1588,-0.1551,-0.1541,-0.1524,-0.1493,-0.1472,-0.1442,-0.1429,-0.1408,-0.139,-0.1366,-0.1362,-0.1328,-0.1335,-0.1321,-0.1308,-0.1307,-0.1302,-0.1299,-0.13,-0.1298,-0.1297,-0.1299,-0.13,-0.13,0,-0.1659,-0.1615,-0.1589,-0.1575,-0.1532,-0.152,-0.1502,-0.1472,-0.1455,-0.1428,-0.1417,-0.1388,-0.1372,-0.135,-0.1326,-0.1325,-0.1294,-0.1289,-0.1282,-0.1283,-0.1276,-0.1277,-0.1272,-0.1268,-0.1268,-0.1268,-0.1268,0,-0.1652,-0.1632,-0.1593,-0.1578,-0.1555,-0.1528,-0.1506,-0.1486,-0.146,-0.144,-0.1418,-0.14,-0.1368,-0.1346,-0.1327,-0.1302,-0.1295,-0.1283,-0.1278,-0.1285,-0.1286,-0.1274,-0.1274,-0.1267,-0.1267,-0.1267,-0.1268,0,-0.166,-0.1634,-0.1604,-0.1566,-0.1556,-0.1541,-0.1508,-0.1492,-0.1471,-0.1446,-0.1439,-0.1406,-0.1379,-0.1352,-0.1316,-0.1303,-0.1278,-0.1271,-0.1288,-0.1285,-0.128,-0.128,-0.1267,-0.1264,-0.1262,-0.1262,-0.1262,0,-0.1657,-0.1641,-0.1602,-0.1587,-0.1569,-0.1545,-0.1527,-0.15,-0.1483,-0.1448,-0.1436,-0.1407,-0.1383,-0.1341,-0.1314,-0.1286,-0.1278,-0.1275,-0.1274,-0.1281,-0.1278,-0.1279,-0.1277,-0.1276,-0.1276,-0.1276,-0.1276,0,-0.1655,-0.1642,-0.1618,-0.1588,-0.1568,-0.1544,-0.1519,-0.1508,-0.1476,-0.1458,-0.143,-0.1411,-0.1373,-0.1345,-0.1314,-0.1295,-0.1281,-0.1277,-0.1274,-0.1281,-0.1291,-0.1285,-0.129,-0.1278,-0.1277,-0.1277,-0.1277,-0.1277,-0.1657,-0.1642,-0.1612,-0.1585,-0.1563,-0.1541,-0.1524,-0.1501,-0.1477,-0.1445,-0.143,-0.1402,-0.1373,-0.133,-0.1311,-0.1289,-0.1285,-0.1281,-0.128,-0.1279,-0.128,-0.1295,-0.1283,-0.1283,-0.1283,-0.1283,-0.1283,0,-0.1653,-0.1632,-0.1608,-0.1574,-0.1553,-0.1541,-0.1513,-0.1497,-0.1472,-0.1446,-0.1423,-0.1391,-0.1363,-0.1335,-0.1306,-0.1293,-0.1286,-0.1287,-0.1287,-0.1283,-0.1285,-0.1291,-0.1293,-0.1293,-0.1293,-0.1293,-0.1293,-0.1293,-0.1648,-0.1622,-0.1606,-0.157,-0.1549,-0.1522,-0.1507,-0.1486,-0.1465,-0.143,-0.1407,-0.1389,-0.1362,-0.1331,-0.1305,-0.1298,-0.1288,-0.1291,-0.1281,-0.1284,-0.1283,-0.1282,-0.1287,-0.1289,-0.1289,-0.128,-0.128,-0.128]},{"header":{"parameterUnit":"m.s-1","parameterCategory":1,"la1":30.2991,"la2":30.254,"lo1":-89.0895,"lo2":-89.0444,"dy":0.0017,"dx":0.0017,"nx":28,"ny":28,"refTime":"2025-02-02T09:00:00:Z","depth":0,"parameterNumber":3,"parameterNumberName":"V-component_of_WINDS"},"data":[0,0,0,0,0,0,0,0,0,0,0,0,0,0,0,0,0,0,0,0,0,0,0,0,0,0,0,0,0,0,0,0,0,0,0,0,0,0,0,0,0,0,0,0,0,0,0,0,0,0,0,0,0,0,0,0,0,0,0.962,0.962,0,0.9594,0.9594,0.9594,0.9554,0.9554,0.9553,0.9552,0.9525,0.9525,0.9525,0,0,0,0,0,0,0,0,0,0,0,0,0,0.9636,0.9636,0.962,0.962,0.962,0.9594,0.9594,0.9594,0.9554,0.9554,0.9553,0.9552,0.9525,0.9525,0.9525,0,0,0,0,0,0,0,0,0,0,0,0,0,0.9621,0.9636,0.962,0.9597,0.9595,0.9594,0.9594,0.9593,0.9555,0.9553,0.9552,0.9551,0.9525,0.9525,0.9525,0.9546,0,0,0.9525,0.9525,0,0,0,0,0,0,0,0,0.9622,0.9621,0.9601,0.9599,0.9596,0.9576,0.9589,0.9577,0.9555,0.957,0.9552,0.9551,0.9543,0.9542,0.9539,0.9544,0.9543,0.9525,0.9525,0.9525,0.9525,0,0,0,0,0,0,0,0.9623,0.9622,0.961,0.96,0.9598,0.9588,0.9585,0.9587,0.9563,0.9568,0.9565,0.9563,0.9542,0.9539,0.9538,0.9543,0.9525,0.9525,0.9525,0.9525,0.9564,0.9565,0,0,0,0,0,0,0.9628,0.9623,0.9611,0.9609,0.9607,0.9588,0.9585,0.9584,0.9563,0.9558,0.9564,0.9561,0.954,0.9538,0.9537,0.956,0.9525,0.9525,0.9525,0.9563,0.9564,0.9565,0,0,0,0,0,0,0.9628,0.9627,0.9612,0.9615,0.9612,0.9589,0.9588,0.9584,0.9581,0.9559,0.9555,0.9566,0.9539,0.9537,0.9544,0.9559,0.9525,0.9525,0.9562,0.9563,0.9565,0.9606,0,0,0,0,0,0,0.9629,0.9627,0.9635,0.9616,0.9612,0.9619,0.9589,0.9584,0.9581,0.9578,0.956,0.9556,0.9538,0.9544,0.9544,0.9558,0.9525,0.956,0.9562,0.9564,0.9604,0.9609,0.9614,0,0,0,0,0,0.9629,0.9648,0.9636,0.9634,0.9622,0.962,0.9619,0.9598,0.9583,0.959,0.9576,0.9556,0.9557,0.9545,0.9544,0.9559,0.9559,0.9562,0.9564,0.9601,0.9608,0.9614,0,0,0,0,0,0,0.9669,0.9645,0.9631,0.9644,0.9634,0.9614,0.9623,0.9606,0.9601,0.9597,0.9571,0.9568,0.9578,0.9569,0.9556,0.9578,0.9555,0.9558,0.9584,0.959,0.9595,0.9598,0.9525,0,0,0,0,0,0.968,0.9681,0.9659,0.9672,0.9668,0.9646,0.9645,0.963,0.9619,0.9615,0.9601,0.9592,0.959,0.9589,0.9586,0.9602,0.9597,0.9611,0.9616,0.962,0.9623,0.9632,0.9638,0.9574,0.9574,0.9574,0,0,0.9701,0.9687,0.969,0.968,0.9671,0.9673,0.9643,0.9646,0.9648,0.9615,0.9622,0.9611,0.9598,0.961,0.9614,0.9603,0.964,0.9624,0.9627,0.9628,0.9635,0.9641,0.9646,0.9575,0.9575,0.9575,0,0,0.9741,0.9731,0.9741,0.9732,0.9719,0.9704,0.9707,0.9689,0.9681,0.9686,0.9662,0.9663,0.966,0.9652,0.9648,0.9685,0.9667,0.9684,0.9712,0.972,0.9725,0.973,0.9744,0.9749,0.9687,0.9687,0.9687,0,0.9769,0.9771,0.9748,0.9753,0.9749,0.972,0.973,0.9723,0.971,0.9708,0.9695,0.9691,0.968,0.969,0.9699,0.9696,0.9698,0.9687,0.9727,0.9731,0.9734,0.9748,0.9753,0.9689,0.9689,0.9689,0.9688,0,0.9807,0.9809,0.9819,0.9807,0.9804,0.9811,0.9789,0.9789,0.9774,0.9761,0.9767,0.9753,0.9747,0.9748,0.9733,0.9755,0.9748,0.9731,0.9708,0.9743,0.9755,0.976,0.9692,0.9692,0.9691,0.969,0,0,0.9873,0.9848,0.9852,0.9846,0.9829,0.983,0.9836,0.983,0.9831,0.9822,0.9827,0.9825,0.9809,0.9804,0.9788,0.9795,0.9826,0.9777,0.9776,0.9788,0.9851,0.9866,0.9872,0.9814,0.9814,0.9815,0.9853,0,0.9911,0.992,0.9899,0.9914,0.9915,0.9887,0.9892,0.9883,0.987,0.9869,0.9855,0.9855,0.9833,0.983,0.9836,0.9821,0.9839,0.9818,0.9819,0.9819,0.9824,0.9878,0.9893,0.9929,0.9857,0.9858,0.9858,0,0.9956,0.995,0.9965,0.9948,0.9948,0.9953,0.9946,0.9945,0.9934,0.9924,0.9918,0.9899,0.9904,0.9881,0.9887,0.9874,0.9872,0.9865,0.9866,0.9867,0.9842,0.9881,0.994,0.9946,0.9865,0.9865,0.9864,0,1.0005,1.0,1.0008,1.0004,0.9984,0.9988,0.998,0.9967,0.9965,0.9958,0.9956,0.995,0.9948,0.9943,0.9923,0.9908,0.9932,0.9908,0.9925,0.9926,0.9933,0.9933,0.9994,0.993,0.993,0.9929,0.9929,0,1.005,1.006,1.003,1.0035,1.0046,1.0021,1.0033,1.0022,1.001,1.0013,0.9987,0.9991,0.9963,0.9963,0.9947,0.9955,0.9954,0.9946,0.9942,0.995,0.9951,0.995,0.9947,0.9931,0.9931,0.993,0.993,0,1.0106,1.0086,1.0094,1.0073,1.0068,1.0077,1.006,1.0064,1.0049,1.0053,1.0053,1.003,1.0029,1.0008,1.0002,0.9991,1.0006,0.9996,1.001,1.0008,1.0027,1.0026,1.0091,1.0098,1.0028,1.0029,1.0029,0,1.0137,1.0145,1.0125,1.0125,1.0118,1.0118,1.0116,1.0092,1.009,1.0077,1.0083,1.0079,1.0076,1.0075,1.0058,1.0053,1.0044,1.0067,1.0043,1.0051,1.0046,1.0047,1.0048,1.0073,1.0073,1.0074,1.0075,0,1.0195,1.0185,1.0182,1.0176,1.0174,1.0169,1.0161,1.0162,1.0136,1.0135,1.0134,1.0131,1.0125,1.0122,1.0114,1.0105,1.0086,1.0082,1.0086,1.0094,1.0103,1.01,1.0026,1.0081,1.008,1.008,1.008,1.0079,1.0241,1.0246,1.0233,1.0232,1.0223,1.0217,1.022,1.0206,1.0204,1.0197,1.0183,1.0184,1.0171,1.0159,1.0151,1.0152,1.014,1.0146,1.0147,1.015,1.0154,1.0101,1.015,1.015,1.015,1.0149,1.0149,0,1.0298,1.0288,1.0287,1.0277,1.0276,1.0257,1.0248,1.0248,1.0249,1.0239,1.0236,1.0234,1.0231,1.0214,1.0209,1.0212,1.0204,1.0212,1.0212,1.0211,1.0164,1.0162,1.0219,1.0219,1.0219,1.0219,1.0219,1.0219,1.0328,1.0337,1.0325,1.0329,1.0319,1.032,1.0316,1.031,1.0302,1.0302,1.0299,1.0287,1.0275,1.0268,1.0265,1.026,1.026,1.0271,1.0264,1.0221,1.0214,1.0208,1.0205,1.0271,1.0271,1.031,1.0311,1.0311]}]]